Overview Statistics Trail Chart Weather Telemetry Raw packets
 

This is the latest recevied weather packets stored in our database for station/object LY3FF-10. If no packets are shown the sender has not sent any weather packets the latest 10 day(s).

<< 22 23 24 25 26 27 28 >>
Time Temp. Humidity Pressure Rain* Wind** Luminosity Snow
1788156760 18.89° C 74% 993.1 hPa - - - -
1788155864 18.89° C 75% 993.1 hPa - - - -
1788155100 17.78° C 77% 993 hPa - - - -
1788154344 17.78° C 78% 993.1 hPa - - - -
1788153540 17.22° C 79% 993 hPa - - - -
1788152790 16.67° C 79% 993 hPa - - - -
1788151898 16.67° C 79% 993.1 hPa - - - -
1788151050 16.67° C 79% 993.1 hPa - - - -
1788150234 16.67° C 79% 993.2 hPa - - - -
1788149500 16.11° C 80% 993.1 hPa - - - -
1788148735 15.56° C 80% 993.2 hPa - - - -
1788147915 15.56° C 80% 993.3 hPa - - - -
1788147020 15.56° C 80% 993.1 hPa - - - -
1788146230 15.56° C 80% 993.1 hPa - - - -
1788145400 16.11° C 80% 993.3 hPa - - - -
1788144675 16.11° C 80% 993.3 hPa - - - -
1788143840 16.67° C 79% 993.4 hPa - - - -
1788142950 16.67° C 78% 993.4 hPa - - - -
1788142110 16.67° C 78% 993.4 hPa - - - -
1788141360 16.67° C 77% 993.7 hPa - - - -
1788140515 16.67° C 76% 993.9 hPa - - - -
1788139644 16.67° C 77% 993.4 hPa - - - -
1788138825 16.67° C 77% 993.6 hPa - - - -
1788137960 17.22° C 76% 993.5 hPa - - - -
1788137104 17.22° C 76% 993.6 hPa - - - -

* Rain since midnight (hover to see other rain measurements)
** Current wind speed in m/s (hover to see current wind gust speed)